Theta_e
296 296 297 297 297 297 298 299 297 297 297 298 297 297 296 296 296 295 295 296 296 296 296 295 295 295 294 294 295 295 294 294 294 293 293 293 293 293 293 293 293 293 294 294 294 293 293 292 291 290 290 289 288 288 287 287 287 287 287 287 287 287 286 286 286 286 286 287 287
297 297 297 296 296 296 297 297 296 296 296 296 296 295 295 295 295 295 294 294 295 295 295 295 295 295 295 295 295 295 294 294 294 294 294 294 294 294 294 294 294 294 294 294 293 293 293 292 291 290 290 289 288 288 287 287 286 286 286 286 286 286 287 286 287 286 287 287 287
297 297 297 297 296 297 297 297 297 295 294 294 294 294 294 294 295 294 294 294 295 295 295 295 295 294 295 295 295 295 294 294 294 294 294 294 294 294 294 294 295 294 294 294 294 293 293 292 291 290 290 289 288 288 287 287 287 287 287 286 287 287 288 288 288 287 287 288 287
296 296 295 295 295 296 296 297 296 295 293 293 292 292 293 294 294 294 294 293 294 295 295 295 294 294 294 294 294 295 294 294 294 294 294 294 294 295 295 294 294 295 294 294 294 293 292 291 291 290 289 288 288 288 288 288 287 287 287 287 288 288 288 288 288 288 288 288 288
294 293 293 293 293 294 294 295 294 294 293 293 293 293 293 293 294 294 294 294 294 295 294 294 294 294 294 295 295 294 294 294 293 294 294 294 294 295 294 295 294 294 294 294 293 292 292 291 290 290 289 288 288 288 288 288 287 287 288 288 288 288 288 288 288 288 288 289 288
292 291 290 290 291 292 293 293 293 293 293 293 293 293 293 293 294 294 294 294 294 294 294 294 294 294 294 295 294 294 294 294 294 294 294 294 294 294 295 294 294 294 294 293 293 292 291 290 290 290 289 289 288 288 288 288 287 287 287 288 288 288 288 288 288 288 288 288 287
291 290 290 290 290 291 292 292 292 292 292 292 292 292 292 293 293 294 294 294 294 294 294 293 294 294 294 294 294 294 294 294 294 294 294 294 294 294 294 294 294 294 294 293 292 292 291 290 290 290 289 289 289 289 288 287 287 287 287 287 288 288 287 286 287 287 287 286 286
290 290 290 290 290 290 291 291 291 292 292 293 292 292 292 293 293 294 294 294 294 293 294 294 294 293 293 293 293 293 294 294 294 294 294 294 294 294 294 294 294 294 293 293 292 291 290 290 290 289 289 289 289 289 288 287 287 286 286 286 287 287 287 287 286 286 286 285 285
290 290 290 291 291 291 290 291 291 292 292 292 292 292 293 293 293 293 293 293 293 293 294 293 293 293 293 293 293 294 294 294 294 294 294 294 294 294 294 294 294 293 293 292 291 290 290 290 289 289 289 289 289 288 287 286 286 285 285 285 285 286 285 285 285 285 285 284 284
291 290 290 291 291 291 291 291 291 291 291 292 291 292 292 292 293 293 293 293 293 293 293 293 293 293 293 294 294 294 294 294 294 294 294 294 294 294 294 294 293 293 292 291 290 289 288 288 288 288 287 287 286 286 285 285 284 284 284 285 284 284 284 284 284 284 284 283 284
289 290 290 290 290 290 290 290 291 291 291 291 291 292 292 292 293 293 293 293 293 293 293 293 293 294 294 294 294 294 294 295 295 295 294 294 294 294 294 293 292 291 290 289 288 287 286 286 286 285 284 284 284 284 283 283 283 282 282 282 282 282 282 283 283 283 283 283 283
289 289 289 289 289 290 290 290 290 290 291 291 291 291 292 292 293 293 293 293 293 293 293 294 294 294 294 294 294 294 294 295 294 294 294 294 294 293 292 291 289 288 287 287 286 285 285 284 284 284 283 283 283 283 283 282 282 282 281 281 281 281 281 282 282 283 283 283 283
288 288 288 288 289 289 289 289 289 290 290 290 290 290 291 291 292 292 292 293 292 293 293 294 294 294 294 294 295 295 295 295 294 294 294 293 293 291 289 288 287 286 286 286 285 285 285 284 284 284 284 283 283 284 283 283 282 282 282 281 281 281 281 282 282 282 282 282 282
288 288 288 288 288 288 289 288 288 289 289 289 289 289 290 290 290 291 291 292 292 292 292 293 294 294 294 295 295 295 295 294 294 293 293 292 290 288 287 287 286 286 286 286 286 286 286 285 285 285 284 284 284 284 283 283 282 282 282 281 281 282 282 282 282 281 281 281 281
287 287 287 287 288 288 288 288 288 288 288 288 288 288 289 289 289 289 289 290 290 291 291 292 292 293 293 294 294 294 294 293 292 291 290 289 288 287 287 287 287 287 287 287 287 287 286 286 286 285 285 284 284 283 283 283 282 282 282 282 282 282 282 282 282 281 281 281 281
287 287 287 288 287 287 287 287 287 287 287 287 287 288 288 288 288 288 289 289 289 290 290 290 291 291 292 292 292 292 292 291 290 289 288 288 287 288 288 288 288 288 288 287 287 287 286 286 286 285 285 284 284 283 283 283 283 282 282 283 282 282 282 282 282 282 281 281 281
287 287 287 287 287 287 287 287 287 287 287 287 287 287 287 288 288 288 289 289 289 290 290 290 291 291 291 290 290 290 290 289 289 288 288 288 288 288 288 288 288 288 288 287 287 287 286 286 285 285 284 284 284 283 283 283 283 283 283 283 283 283 283 283 283 283 282 282 282
288 288 288 288 287 287 287 287 287 287 287 287 287 288 288 288 289 289 289 289 290 290 291 291 291 291 290 290 290 290 289 289 288 288 288 288 288 288 288 288 288 288 287 287 287 286 286 286 285 285 284 284 284 284 284 283 284 284 284 284 284 284 284 284 283 283 283 283 283
289 289 288 288 288 288 288 288 288 287 287 288 288 288 288 289 289 290 290 290 291 291 291 291 290 290 290 290 289 289 288 288 287 287 287 287 288 288 288 288 288 288 287 287 286 286 286 286 285 285 285 284 284 284 284 284 284 284 284 284 284 284 284 284 284 284 284 283 283
289 289 289 289 289 288 288 288 288 288 287 288 288 288 288 289 289 289 289 289 290 290 290 290 289 289 289 288 288 287 287 287 287 287 287 288 288 288 288 288 288 287 287 286 286 286 285 285 285 285 285 285 285 285 284 284 284 284 284 284 284 284 284 284 284 284 284 283 283
288 289 288 289 288 288 288 288 287 287 287 287 287 287 288 288 289 289 289 289 289 289 289 288 288 288 287 287 287 286 286 286 287 287 288 288 289 289 288 288 287 287 286 286 286 286 285 285 285 285 285 285 285 285 285 285 285 284 284 284 285 284 284 284 284 283 283 283 283
287 288 288 288 288 288 288 288 288 288 288 288 289 289 289 290 291 291 291 291 291 291 291 290 289 288 288 287 287 286 286 287 287 288 289 289 289 288 288 287 286 286 285 285 285 285 285 285 285 285 285 285 284 284 284 284 284 284 284 284 284 283 283 283 283 283 283 282 283
288 288 288 289 289 289 290 290 290 291 291 291 292 292 292 292 293 293 293 293 292 292 292 291 290 289 288 287 287 287 287 288 289 289 289 289 288 287 286 286 285 285 284 285 285 284 284 284 284 284 284 284 284 283 284 283 283 283 283 282 282 282 282 282 281 281 281 281 281
290 290 291 292 292 292 293 293 292 292 292 293 293 293 293 293 293 293 293 293 293 292 291 291 290 289 288 288 288 288 289 289 289 289 288 287 286 286 285 285 284 284 285 285 286 286 285 285 284 284 283 283 283 283 283 282 282 282 281 281 281 280 280 280 279 279 280 279 280
292 292 292 293 293 293 293 293 293 293 293 293 293 293 293 293 293 293 293 293 292 292 291 290 289 288 288 289 289 290 290 289 289 288 287 286 285 284 284 284 284 284 285 285 287 289 289 287 286 285 283 282 282 282 281 281 280 280 280 280 279 279 279 278 278 278 279 279 279
292 293 293 293 293 293 293 293 293 293 293 293 293 293 293 293 293 293 292 292 292 291 290 289 288 288 289 289 290 290 290 289 288 287 286 285 284 283 283 283 284 284 285 286 288 289 289 289 289 287 284 282 281 281 280 279 279 279 278 278 278 278 278 278 278 278 278 279 279
292 292 293 293 293 293 293 293 293 292 292 292 292 292 292 292 293 292 291 291 290 290 289 288 288 289 289 290 290 289 289 288 287 285 284 283 282 282 282 282 283 283 284 287 288 288 289 289 289 288 286 282 281 280 279 278 278 277 277 277 277 277 277 278 278 278 279 280 280
291 291 292 292 292 292 292 292 292 291 291 291 292 292 292 292 292 291 291 290 289 288 288 288 289 289 290 290 289 289 288 286 285 284 283 282 282 281 281 281 281 282 284 287 288 288 288 289 289 289 287 284 281 279 278 277 277 276 276 276 276 276 277 277 279 279 280 280 281
289 290 290 291 291 291 291 291 291 291 291 291 291 291 291 291 291 291 290 289 288 288 288 289 289 290 290 289 288 287 286 284 283 283 282 282 281 280 280 280 279 280 283 286 287 288 288 288 288 288 288 287 282 279 277 276 276 276 276 277 277 277 278 279 280 280 280 281 281
288 289 289 290 290 290 290 290 290 291 291 291 291 291 291 291 290 289 289 288 288 288 289 289 289 289 289 288 287 285 284 283 282 282 281 280 280 279 279 279 278 280 282 286 287 287 288 288 288 288 288 288 283 279 277 276 276 277 277 278 279 279 279 280 280 280 280 281 281
288 288 289 289 289 289 290 290 290 290 290 291 290 290 290 289 289 288 288 288 288 288 289 289 289 288 287 286 285 284 283 282 281 280 280 279 279 278 278 278 277 279 281 285 286 287 288 288 288 288 288 288 283 280 277 277 277 277 278 279 279 279 279 280 280 280 280 280 280
288 288 288 288 288 288 289 289 289 289 289 289 289 288 288 288 288 288 288 289 289 289 289 288 287 286 284 283 282 282 281 280 280 279 279 278 278 277 277 277 277 278 280 285 286 287 287 288 288 288 288 287 284 281 278 277 277 278 278 279 279 279 279 280 280 280 279 279 279
287 287 287 287 287 287 287 287 287 287 287 287 287 287 287 288 288 288 289 289 289 288 287 286 285 283 282 281 281 280 280 279 279 278 278 277 277 277 277 277 277 279 282 285 286 287 287 288 288 288 287 287 284 281 278 278 278 279 279 279 279 279 279 279 279 280 280 280 280
287 287 287 287 287 287 286 286 285 286 286 287 287 288 288 289 289 289 288 288 287 286 285 284 283 282 281 280 280 279 279 278 278 277 277 277 276 276 277 277 277 280 283 285 286 287 287 287 287 287 287 286 283 280 278 278 278 279 279 279 279 279 279 280 280 280 280 280 280
287 287 287 287 286 286 285 285 286 286 287 288 288 288 288 288 288 287 286 285 284 283 282 281 280 279 279 278 278 278 278 277 277 277 276 276 276 276 276 277 277 280 283 285 285 286 286 286 286 286 286 285 282 279 278 278 278 279 279 279 279 279 279 280 280 280 281 281 281
287 286 286 285 286 285 285 285 285 285 286 286 286 286 286 286 286 285 285 283 282 281 280 279 278 278 277 277 277 277 277 277 277 277 276 276 276 276 276 276 276 278 282 284 285 285 286 286 285 286 285 283 281 279 278 279 279 279 279 279 280 280 280 280 281 281 281 281 281
285 285 285 285 285 285 285 285 285 285 285 285 286 286 286 285 285 284 283 281 280 279 278 277 277 277 277 277 277 277 277 277 277 276 276 276 275 275 275 275 275 277 280 283 284 285 285 285 285 285 284 281 279 279 279 279 280 280 280 281 281 281 281 281 281 282 282 282 282
285 285 284 284 284 285 285 285 286 286 286 287 286 286 285 284 283 282 281 280 279 278 277 277 277 277 277 277 277 277 276 276 276 276 276 275 275 275 275 275 274 276 278 282 283 284 284 285 285 284 283 280 279 279 279 280 280 281 281 281 282 282 282 282 283 283 283 283 284
284 284 285 285 285 285 286 286 286 286 286 286 285 284 283 282 282 281 280 278 278 277 277 276 277 276 276 276 276 276 276 276 276 276 275 275 275 275 275 274 274 275 277 281 283 284 284 284 284 284 283 281 279 279 280 280 281 281 282 282 282 282 283 283 284 284 284 284 285
285 286 286 286 286 286 286 286 286 285 284 284 283 282 282 281 280 280 280 277 276 276 276 276 276 276 276 276 275 275 275 276 275 275 275 274 275 276 277 274 273 274 276 280 282 283 284 284 284 284 283 281 279 279 280 281 281 281 281 282 283 283 283 283 283 282 282 282 283
287 287 287 287 287 286 286 285 284 284 283 283 282 282 281 280 279 278 278 276 276 276 276 276 276 276 275 275 275 275 275 275 275 275 274 274 274 276 277 273 273 273 274 278 281 283 283 284 283 283 283 281 280 280 280 281 281 281 281 282 282 282 281 281 280 280 280 280 280
Wind_Speed
6 6 6 5 5 5 5 5 5 5 5 6 6 6 6 5 5 5 4 4 4 4 4 4 4 5 6 7 8 9 9 9 9 9 8 8 8 8 8 8 7 7 6 6 5 5 4 4 3 3 3 3 3 2 2 2 2 2 3 3 3 3 3 3 4 5 5 5 5
7 7 7 6 5 5 5 5 5 5 5 5 5 5 4 4 4 3 3 4 4 4 5 5 5 6 7 8 9 9 9 9 9 9 9 9 9 9 8 7 6 6 5 5 5 5 4 5 4 4 4 3 3 3 2 2 2 3 3 3 3 3 3 3 4 5 5 5 5
7 6 6 5 5 5 5 5 5 5 5 4 2 2 2 3 3 4 4 4 5 5 5 5 6 7 8 9 9 8 8 9 9 9 9 8 8 7 6 5 5 5 5 5 5 5 5 5 5 4 4 4 4 3 3 3 3 3 3 4 3 3 3 3 4 4 4 4 5
6 5 5 5 6 6 6 5 5 4 3 1 1 2 2 3 3 4 4 5 6 6 6 6 6 7 7 9 9 9 9 10 10 9 8 7 6 6 5 5 5 5 5 5 5 6 6 6 5 5 4 4 4 4 4 3 3 3 3 4 3 3 3 4 4 4 4 4 5
5 4 3 3 4 4 4 4 3 2 1 1 2 3 3 3 4 4 5 5 5 6 7 8 8 7 8 9 10 11 11 11 9 7 6 6 5 5 5 5 5 5 5 5 5 6 7 7 5 5 5 4 4 4 4 4 4 4 3 3 3 3 4 4 4 4 4 4 4
4 3 2 2 3 3 3 2 1 2 2 3 4 4 4 4 4 5 6 6 6 7 8 9 9 8 9 10 11 11 10 9 7 6 5 5 4 4 4 4 4 4 4 5 6 8 9 8 6 5 5 4 4 5 5 5 5 4 4 4 4 4 4 4 4 4 4 5 5
2 2 2 3 3 3 3 3 3 4 4 5 6 7 6 6 6 7 7 7 7 7 7 7 9 9 10 10 10 9 7 6 6 5 4 4 3 3 3 3 4 4 5 6 8 9 9 9 6 5 5 4 4 5 5 5 5 4 4 4 4 4 4 4 4 4 5 6 7
1 1 2 3 4 4 4 4 5 5 5 5 7 7 8 8 8 8 8 7 7 6 6 7 10 10 10 9 8 7 6 6 5 4 3 3 2 2 2 3 4 5 7 9 10 11 10 8 6 5 5 4 4 4 5 5 5 5 5 5 5 4 4 4 4 4 5 6 7
2 3 3 4 5 5 6 6 6 6 7 7 7 7 8 8 9 9 8 7 6 7 8 9 10 10 10 8 7 6 5 5 4 3 2 2 1 2 3 4 5 7 9 11 12 12 10 7 5 4 4 4 4 5 5 5 5 5 5 5 5 4 4 4 4 4 5 6 7
3 3 3 4 5 6 6 7 7 7 8 8 7 7 7 8 8 7 7 6 6 7 8 9 10 9 9 8 7 6 5 4 3 3 2 1 1 3 4 6 8 10 11 11 10 9 7 5 5 5 5 4 5 5 5 5 5 5 5 4 4 5 5 5 5 5 5 6 7
3 3 3 3 5 6 6 6 6 7 7 7 7 7 7 7 7 6 6 6 7 7 8 9 9 9 8 7 6 5 4 3 3 2 1 2 4 6 8 10 11 11 11 9 6 5 5 4 4 5 5 4 4 5 5 5 5 6 6 5 5 5 5 6 6 5 6 6 7
3 3 3 3 5 6 6 6 5 6 6 7 6 6 6 6 6 5 5 5 6 6 6 8 8 8 7 5 5 4 4 3 3 3 4 6 8 10 11 12 11 10 8 7 5 4 4 4 5 5 5 5 4 4 5 5 5 6 6 6 5 5 6 7 7 6 6 6 7
3 3 3 4 5 6 6 5 4 5 6 7 6 5 5 5 5 4 5 5 5 5 5 7 7 7 6 5 4 4 3 3 5 6 7 9 11 11 11 9 8 7 7 6 5 4 4 5 5 6 6 6 5 5 5 6 6 6 6 6 6 6 7 7 7 7 6 6 7
3 3 3 4 4 5 5 4 4 4 5 6 5 5 4 4 3 3 3 4 5 5 5 6 6 5 5 5 5 5 6 7 8 9 10 10 10 9 8 7 7 6 6 6 5 5 5 6 6 6 7 7 6 6 6 5 5 6 6 7 7 7 8 8 8 7 7 7 7
3 3 3 3 4 4 4 4 3 4 4 4 4 4 3 3 2 2 3 4 5 5 5 5 5 5 5 6 6 7 8 9 9 10 9 9 8 7 6 6 7 7 6 6 5 5 6 6 6 6 6 7 7 7 6 6 6 6 6 7 8 8 8 8 8 8 7 8 8
3 3 3 3 3 3 3 3 3 3 3 3 2 3 3 3 2 3 4 5 4 4 4 5 4 4 4 5 6 7 8 8 8 8 7 7 7 7 7 7 7 7 7 7 6 6 6 6 6 6 6 6 7 7 6 6 6 7 7 8 8 8 8 9 8 8 8 8 8
3 3 3 3 3 3 3 3 3 3 3 2 2 2 3 3 3 3 4 5 4 4 4 3 2 2 2 4 5 6 6 7 6 6 6 6 7 7 7 7 7 7 7 7 7 6 6 6 6 5 6 6 6 7 7 7 7 7 8 8 8 9 9 9 9 9 9 9 9
3 3 3 3 3 4 4 3 3 3 3 2 2 2 2 3 3 4 4 4 4 4 3 2 1 2 4 5 5 5 5 5 6 6 6 6 6 6 6 7 7 7 7 7 7 7 7 7 6 6 6 6 6 7 7 7 8 8 8 9 9 9 9 9 9 9 9 10 10
3 3 3 3 4 4 4 3 3 3 2 2 1 1 2 2 3 3 3 3 3 3 3 2 3 4 5 6 6 5 4 4 5 5 5 5 5 6 6 7 7 7 7 6 6 6 6 6 6 6 6 6 7 7 7 8 8 8 9 9 9 9 10 10 10 10 10 10 11
3 3 2 2 2 3 3 3 2 2 2 1 2 2 3 3 3 3 3 3 3 2 2 2 3 4 5 5 5 4 4 3 4 4 5 5 5 6 7 7 7 7 6 6 6 6 6 6 7 7 7 7 8 8 8 8 8 9 9 9 9 9 10 10 10 10 10 10 10
2 2 2 2 2 2 3 3 3 3 3 3 3 3 3 4 4 5 4 4 4 3 2 1 2 4 5 5 5 4 4 3 4 4 5 5 6 7 7 7 6 6 6 6 6 6 7 7 7 7 7 7 8 8 8 8 9 9 9 9 9 9 9 10 9 9 10 10 10
2 2 2 3 3 4 4 3 3 3 3 3 3 4 4 5 6 6 6 5 5 5 4 4 5 6 6 5 5 4 3 3 3 3 4 5 6 7 7 6 5 5 6 6 6 7 7 7 7 7 7 7 7 8 8 8 8 9 9 9 9 9 9 9 9 9 9 9 9
3 3 3 4 4 4 4 3 3 3 4 4 5 5 6 6 6 5 5 4 4 4 5 7 7 7 6 5 4 3 2 3 4 5 6 7 7 7 6 5 5 5 6 6 6 6 6 6 7 7 7 6 7 7 8 8 8 8 8 9 9 8 8 8 8 7 7 8 8
3 4 4 4 4 4 4 3 3 3 3 3 3 2 2 2 2 2 2 3 5 6 7 7 7 6 5 4 2 2 3 4 6 7 8 8 7 6 6 5 5 5 6 6 6 6 6 5 6 6 6 6 6 7 7 7 7 7 7 8 8 8 7 7 7 6 6 7 6
3 4 4 4 4 4 4 4 4 4 3 3 3 3 3 4 4 4 5 6 7 8 8 8 6 5 3 2 2 3 4 5 7 8 9 8 7 6 6 5 5 5 5 5 7 8 8 7 6 6 5 5 6 6 6 6 6 6 6 7 7 7 6 6 6 6 6 6 6
3 3 4 4 4 4 4 4 4 4 4 4 4 5 5 5 5 6 6 7 7 8 8 7 5 3 2 1 2 4 5 6 8 8 8 8 7 6 6 5 5 4 5 6 7 9 10 10 9 8 6 5 5 5 5 5 5 6 6 6 6 6 6 6 6 6 6 6 7
3 3 3 3 3 3 3 3 3 3 3 4 4 5 5 5 5 5 6 7 8 8 7 5 3 2 1 1 3 4 6 7 8 7 7 7 6 6 6 5 5 4 5 7 8 9 10 10 11 10 8 6 5 5 5 5 5 5 5 5 5 5 6 7 7 7 7 7 8
3 3 3 3 2 3 3 3 3 4 4 5 5 5 5 5 6 6 7 7 7 6 4 3 3 2 1 2 3 6 8 8 7 6 5 5 5 5 5 5 4 5 6 8 9 10 10 11 11 11 10 7 5 4 4 4 4 4 4 4 5 5 6 6 7 7 8 9 9
3 3 3 3 3 3 4 4 4 5 6 6 6 6 6 6 7 7 7 6 5 4 3 3 2 1 2 3 5 7 7 7 5 5 4 4 4 4 4 5 5 6 7 9 10 10 11 11 11 11 11 9 5 3 2 2 3 3 3 4 5 5 6 7 7 8 9 10 10
4 4 4 4 4 4 4 5 6 6 6 6 6 6 6 6 6 6 6 5 4 4 3 2 1 2 4 5 5 5 5 4 4 3 3 4 4 4 4 5 5 6 7 10 10 11 11 11 11 11 10 8 4 2 2 2 2 3 4 5 5 6 7 8 9 10 10 10 11
4 4 4 5 5 5 5 5 6 6 5 5 5 5 5 5 5 5 4 3 3 3 2 2 3 4 5 5 4 3 4 4 3 3 3 4 5 5 5 5 5 6 8 10 10 11 11 11 10 9 8 7 4 3 2 3 3 4 5 6 7 8 9 9 9 10 11 11 11
4 5 5 5 5 5 5 5 5 4 4 4 4 4 4 4 4 3 2 2 2 3 4 4 4 4 4 3 3 3 3 3 3 3 4 4 4 5 5 6 6 6 8 10 10 11 11 10 9 8 7 7 6 4 4 4 4 5 6 7 8 9 9 9 9 10 11 11 11
5 5 5 6 6 5 5 4 3 3 2 2 2 2 2 2 2 2 3 3 3 4 4 3 3 3 3 2 2 3 3 3 4 4 4 4 4 4 5 5 5 6 8 10 10 10 9 8 8 8 8 9 7 6 5 5 5 6 6 7 8 9 10 10 10 10 11 11 11
6 6 6 6 6 5 3 2 2 1 2 2 2 1 1 2 3 4 4 4 3 2 2 2 2 2 2 2 2 3 3 3 4 4 4 4 4 4 5 5 5 6 8 9 9 9 8 8 9 9 10 10 7 6 5 6 6 6 7 8 9 9 10 10 11 11 11 12 11
6 5 5 5 3 2 1 1 1 1 2 2 1 1 2 3 4 5 4 3 1 1 1 1 1 2 2 2 2 3 3 3 4 4 5 4 4 4 5 6 5 6 8 9 8 8 8 9 10 11 11 10 7 6 6 6 7 7 8 9 9 9 10 10 11 11 11 12 12
3 2 2 1 0 0 0 0 1 1 1 1 1 2 3 4 4 3 2 1 0 0 1 1 1 1 2 2 2 2 3 3 4 5 5 5 4 5 5 6 5 6 7 8 8 8 9 10 11 12 12 9 6 5 6 6 7 8 8 9 9 10 10 11 11 11 11 11 11
2 2 2 2 2 1 1 1 3 4 4 4 4 4 4 4 3 2 1 1 0 0 1 1 1 2 2 2 3 3 3 3 4 5 6 6 5 5 5 5 5 5 6 7 8 9 10 11 13 13 11 7 6 5 6 6 6 7 8 9 9 10 10 10 10 10 10 10 10
4 4 4 3 3 4 4 5 6 6 6 6 5 4 3 2 2 2 1 1 1 1 1 2 2 2 3 3 3 4 4 4 4 4 5 6 5 4 4 4 4 5 5 7 8 9 11 12 14 14 12 7 6 6 6 6 6 7 7 8 9 10 10 9 8 7 8 8 9
6 6 6 7 7 7 7 7 6 6 6 5 5 3 2 2 2 2 1 1 2 1 1 2 2 3 3 3 3 4 5 5 4 4 4 5 5 4 3 3 4 4 5 7 8 10 12 13 14 15 13 8 6 6 6 6 7 8 8 8 9 9 8 7 5 5 5 6 9
8 8 9 8 8 7 7 6 6 5 4 4 3 3 2 2 2 2 1 1 1 1 1 2 3 4 4 3 3 4 5 5 5 4 3 4 4 4 3 3 3 4 6 7 9 11 13 14 15 16 14 8 6 6 6 6 7 8 9 8 8 6 5 4 4 4 5 6 8
8 8 8 7 6 6 5 5 5 4 3 3 3 3 2 2 2 1 1 1 1 1 1 2 3 4 4 4 3 4 5 5 5 4 3 3 4 4 3 3 4 4 5 6 8 11 13 15 16 16 15 9 7 6 6 6 7 8 9 8 5 4 4 5 5 5 5 6 6
Wind_Direction
291 287 284 280 277 274 271 268 263 259 256 253 251 248 242 230 222 210 193 173 159 144 129 118 111 101 93 87 86 84 81 77 74 71 68 63 58 53 49 44 37 29 20 9 3 357 350 334 315 297 283 271 264 256 244 223 211 212 218 225 228 229 232 239 249 254 256 257 257
294 291 288 287 283 279 277 275 271 265 259 251 247 242 233 218 199 176 153 140 134 125 118 110 104 99 93 86 83 81 79 76 72 66 60 54 49 45 41 36 28 19 10 1 355 346 332 312 299 288 280 272 266 258 247 224 206 209 221 231 231 231 234 243 248 250 251 254 255
294 294 294 293 289 287 284 281 277 269 259 249 237 218 196 175 151 136 126 121 116 113 110 107 100 95 92 88 83 80 77 73 67 63 58 53 48 44 39 32 21 12 4 355 345 329 311 297 287 278 273 269 262 255 247 236 215 216 225 234 236 239 245 252 251 250 251 255 254
296 295 295 294 292 291 289 289 284 277 263 227 130 110 109 111 112 113 112 107 105 104 105 105 99 93 89 88 83 78 72 66 64 61 58 53 46 39 32 23 13 3 354 343 327 310 295 284 277 270 266 261 255 249 245 241 232 230 235 239 243 246 250 255 254 253 254 256 254
298 293 288 288 290 291 292 293 288 284 287 73 83 81 81 89 96 99 99 96 95 97 99 97 94 89 83 81 76 72 68 64 64 62 58 51 42 33 24 15 4 351 337 323 306 292 282 273 270 265 260 255 249 246 244 243 243 246 251 254 254 252 253 255 255 254 254 256 255
296 295 295 299 301 307 313 326 3 33 42 46 66 70 71 76 83 87 89 91 91 89 88 87 85 80 75 71 69 68 68 67 67 65 60 52 40 27 15 3 346 330 314 300 287 277 271 265 263 260 257 253 251 250 249 246 247 252 257 262 260 258 256 255 256 256 255 256 257
287 312 334 342 346 352 358 4 30 44 49 53 61 65 69 72 77 81 84 88 86 83 80 79 76 74 72 70 71 73 74 73 71 68 63 54 38 20 1 339 320 304 292 281 273 266 260 254 255 256 257 257 258 258 255 250 250 253 257 262 261 259 256 254 255 256 255 255 255
37 32 31 32 33 32 31 32 47 55 59 62 66 70 75 79 82 83 84 82 82 82 82 80 79 79 79 81 83 84 83 81 79 74 67 55 31 2 331 308 294 281 272 264 257 253 250 249 251 255 259 261 263 262 259 254 252 252 254 257 259 258 255 254 255 255 254 254 254
48 47 51 58 57 56 54 55 62 67 72 74 77 80 82 85 86 87 86 86 88 88 88 88 88 90 92 95 95 94 93 94 93 87 76 57 11 317 292 280 269 262 255 250 247 246 247 251 255 257 257 258 259 259 258 254 252 251 252 254 256 257 256 254 253 253 252 252 254
55 56 60 68 73 72 71 69 72 76 80 82 84 86 87 89 90 92 95 99 98 98 98 100 101 102 103 104 104 105 108 111 109 102 92 70 276 266 260 256 249 246 244 242 243 245 247 252 254 255 254 252 251 252 254 252 250 249 249 252 253 256 256 255 251 250 250 251 252
74 75 79 84 87 86 83 81 81 83 85 86 88 89 92 93 96 99 103 104 103 105 108 110 109 109 110 110 113 116 119 119 118 124 159 225 238 241 241 240 238 239 240 243 245 246 246 244 245 247 249 248 244 245 247 246 244 244 246 250 251 253 255 257 253 251 250 250 251
91 89 88 91 93 93 92 93 93 95 96 95 94 94 96 99 102 104 103 102 102 104 105 104 106 109 112 114 118 120 123 130 150 182 211 225 230 232 233 234 236 239 243 247 246 240 233 228 231 236 241 244 241 239 239 239 240 242 246 251 252 253 256 259 257 256 255 253 254
98 94 91 88 90 92 94 97 100 104 105 105 103 102 102 104 106 105 104 103 103 101 100 100 105 110 117 122 126 135 151 175 196 208 217 223 227 229 232 235 237 240 242 242 236 228 223 223 226 232 238 243 244 242 240 239 242 246 251 256 258 259 259 261 260 260 259 259 259
91 91 89 84 83 85 89 91 92 96 100 104 106 107 109 110 108 106 107 110 111 111 111 112 117 124 134 142 153 170 188 202 210 216 220 225 228 231 234 239 240 241 241 240 233 228 226 230 232 236 241 247 251 250 248 245 246 249 252 256 259 260 260 261 260 259 259 259 259
83 82 81 78 75 75 76 78 78 80 84 93 101 106 109 110 104 100 101 106 110 112 116 120 128 141 154 165 178 191 203 212 216 220 225 230 234 238 241 246 247 248 248 247 244 239 237 239 241 243 247 251 254 255 254 252 250 250 251 253 255 257 259 260 259 258 257 256 258
81 78 76 77 77 76 75 75 76 79 82 89 96 104 107 109 100 96 96 99 99 100 104 111 125 144 167 184 196 204 212 218 222 226 231 236 242 246 249 252 254 254 254 254 254 252 249 246 245 245 247 249 252 254 255 254 253 253 253 254 255 256 258 258 258 257 255 254 256
90 87 85 87 90 92 93 92 91 93 98 106 111 114 115 115 107 104 105 106 102 97 94 98 114 155 198 214 217 220 222 227 231 234 238 242 247 251 253 255 256 256 256 256 257 257 256 253 249 246 245 247 250 253 255 255 257 257 257 257 257 258 258 258 257 257 256 256 256
107 107 105 105 110 113 116 117 116 117 122 132 138 134 124 119 116 116 116 114 109 107 109 121 169 212 227 233 233 233 233 235 239 243 246 248 251 254 256 257 258 258 257 255 255 255 255 256 255 253 252 252 254 255 257 259 260 261 261 261 261 260 260 259 258 257 257 257 258
126 126 125 127 131 132 133 130 126 126 131 142 139 122 106 100 106 108 109 106 112 123 141 176 207 223 231 235 238 241 242 243 247 251 253 254 254 256 258 259 260 259 257 255 254 254 255 257 259 260 261 261 263 264 264 264 265 265 264 264 263 263 262 261 259 259 258 258 259
136 133 133 133 132 128 120 109 102 94 86 77 70 65 60 55 56 60 66 73 84 103 129 184 222 236 242 245 248 252 254 249 247 248 250 252 256 260 262 264 264 263 260 258 257 258 259 262 263 265 266 267 269 270 271 271 270 269 268 267 266 265 264 263 262 261 260 259 260
123 114 104 93 85 76 70 66 69 70 69 62 61 58 54 48 43 39 37 34 35 35 29 327 264 255 254 254 253 252 248 239 233 238 247 259 267 270 271 270 269 267 265 263 264 264 265 267 268 269 270 271 272 273 274 274 274 273 271 271 269 268 267 266 266 265 265 264 263
108 103 100 96 87 79 73 69 71 70 66 57 48 41 36 32 28 24 18 11 6 354 331 300 278 266 257 249 242 236 234 234 244 259 272 280 281 279 276 273 270 268 268 268 267 268 269 270 271 272 273 274 274 274 274 274 274 274 274 273 272 271 270 269 268 267 267 266 265
131 125 117 107 97 90 84 77 68 58 50 42 33 26 20 16 11 5 359 351 334 308 288 278 272 267 260 248 236 234 252 286 299 298 294 287 282 279 276 272 268 266 265 266 267 267 269 273 274 274 273 273 272 272 272 271 271 272 272 272 272 272 271 270 268 267 266 266 265
144 133 119 104 95 91 89 83 77 70 64 58 52 42 22 347 319 303 290 276 264 260 259 261 263 263 259 247 246 277 310 316 306 297 288 281 277 274 271 268 264 262 262 263 265 265 266 270 274 275 273 271 269 269 268 267 266 267 267 269 270 270 270 270 267 265 264 264 264
139 124 112 106 106 109 114 120 125 133 144 158 170 181 195 210 219 227 234 238 243 246 250 255 259 258 256 254 299 319 316 304 289 281 277 276 274 271 268 266 264 263 263 265 268 269 269 270 272 273 273 271 270 269 268 266 263 262 261 262 263 266 269 271 270 267 264 262 261
110 105 109 117 124 131 141 150 159 169 178 186 192 199 207 214 220 224 230 236 242 246 251 254 254 251 249 294 321 314 301 286 274 269 267 268 269 269 268 266 265 266 268 272 272 274 275 275 275 274 272 270 269 269 268 267 262 258 256 255 255 258 263 269 271 270 266 263 259
97 103 113 122 131 144 159 170 180 189 199 205 211 218 223 226 230 233 237 241 245 248 251 250 239 230 242 318 310 295 283 273 267 262 259 257 260 264 267 268 269 269 271 274 275 276 277 278 278 277 274 269 265 262 262 263 260 256 252 251 251 253 257 263 268 270 270 268 263
122 130 136 138 154 173 186 191 200 208 213 216 219 224 228 230 234 236 239 243 248 250 249 235 220 218 271 317 291 276 268 263 262 260 256 254 256 259 263 268 270 271 273 275 276 277 278 279 279 279 278 274 267 258 253 254 255 253 251 250 252 254 257 260 265 269 271 271 269
149 153 158 166 184 194 200 201 206 212 216 218 221 224 227 230 233 237 242 248 250 246 235 224 225 271 307 292 272 264 260 258 258 258 258 260 262 263 264 266 269 272 274 276 278 279 280 281 281 282 283 284 276 260 242 242 248 253 255 256 257 260 262 265 269 271 273 274 274
166 168 175 187 198 205 209 210 213 215 218 221 224 227 230 234 238 242 246 248 243 234 229 237 285 295 283 268 262 259 258 258 256 255 257 262 267 269 271 271 271 273 276 279 281 282 284 285 286 286 288 294 290 274 246 245 253 260 265 269 268 268 269 271 273 274 275 275 276
180 183 189 199 207 213 216 217 219 221 224 230 235 239 243 247 248 246 240 231 232 237 252 275 278 271 264 258 256 256 257 260 260 259 258 261 267 271 273 274 274 275 278 282 284 286 288 289 291 293 297 305 302 291 271 264 263 266 270 274 274 274 274 274 274 274 273 274 274
189 192 197 205 213 219 223 224 227 231 237 244 252 256 257 253 247 241 234 232 247 258 265 266 261 257 257 260 257 254 254 259 263 264 264 264 269 273 276 278 277 278 281 285 288 290 292 294 298 302 306 309 304 295 283 274 272 272 273 274 273 272 272 272 272 272 271 270 269
198 199 202 209 217 223 228 231 236 239 240 236 233 239 249 258 269 276 275 267 261 259 257 250 244 244 248 252 254 258 260 262 265 268 269 269 271 276 281 283 282 283 286 291 294 296 298 302 307 310 310 310 305 298 289 281 278 277 277 275 273 270 268 267 267 267 267 266 265
207 207 209 214 220 226 234 242 233 210 192 182 174 181 231 279 280 273 266 257 251 243 233 222 217 219 224 226 236 251 263 269 272 275 277 277 280 284 288 288 287 291 296 300 302 304 307 311 314 314 313 311 307 300 292 286 283 280 277 275 272 270 268 266 265 264 264 263 263
217 216 218 222 227 238 260 274 199 170 157 142 146 237 264 264 258 252 246 238 230 222 222 223 218 222 227 229 230 244 260 276 282 284 285 286 291 293 293 291 291 297 303 306 307 310 313 316 317 317 316 313 307 298 291 286 283 279 275 272 271 269 268 266 266 265 263 263 262
228 221 216 215 137 62 84 129 121 88 62 39 326 282 269 264 256 249 236 205 147 340 285 268 262 258 260 262 261 262 269 280 289 292 293 293 295 295 295 293 295 300 304 307 309 312 316 319 319 319 318 314 306 297 291 286 283 279 276 274 273 272 270 269 268 267 266 266 264
65 88 94 88 86 85 77 50 24 9 356 339 317 297 282 271 261 251 227 140 113 285 278 271 271 271 273 278 283 284 283 284 290 293 294 294 294 294 294 295 295 297 299 302 307 312 317 321 321 321 319 312 305 298 293 288 285 283 281 281 280 277 274 271 270 270 270 270 270
66 75 77 69 50 34 22 13 1 347 333 316 302 290 281 273 266 256 229 163 174 226 257 266 271 273 275 280 287 290 290 288 286 288 291 293 292 291 291 292 290 289 290 295 304 312 318 322 322 321 320 310 305 299 296 292 290 289 288 287 285 280 276 273 274 276 279 282 287
43 44 42 36 25 16 6 354 340 323 305 290 280 273 265 257 257 252 237 195 191 206 233 259 273 276 280 287 295 298 296 293 288 287 289 292 289 286 280 276 279 281 285 291 304 313 320 323 322 321 319 310 306 301 297 296 295 295 293 291 286 282 280 282 290 297 301 301 303
24 23 22 19 12 1 348 333 314 297 280 268 262 257 252 247 248 250 246 220 208 210 228 260 278 283 288 295 300 300 300 299 298 296 293 291 289 286 278 256 266 273 281 289 304 315 321 324 322 321 320 311 307 302 300 300 300 298 296 291 289 292 300 315 318 315 309 303 303
16 15 12 7 357 342 325 304 287 274 260 248 246 246 248 250 257 265 273 272 256 254 265 284 290 293 297 301 302 303 303 304 304 303 301 297 292 286 277 251 262 269 277 287 306 317 322 324 321 320 319 312 309 305 303 304 302 299 295 293 302 316 326 323 314 304 298 295 294